ProjectID,Date,Electric Generation,Electric Utility Import,Facility Electric Load
,YYYY-MM-DD,kW,kW,kW
321,2016-04-01,0.0,,0.0
321,2016-04-02,0.0,,0.0
321,2016-04-03,0.0,,0.0
321,2016-04-04,0.0,,0.0
321,2016-04-05,0.0,,0.0
321,2016-04-06,0.0,,0.0
321,2016-04-07,0.0,,0.0
321,2016-04-08,0.0,,0.0
321,2016-04-09,0.0,,0.0
321,2016-04-10,0.0,,0.0
321,2016-04-11,0.0,,0.0
321,2016-04-12,0.0,,0.0
321,2016-04-13,0.0,,0.0
321,2016-04-14,0.0,,0.0
321,2016-04-15,0.0,,0.0
321,2016-04-16,0.0,,0.0
321,2016-04-17,0.0,,0.0
321,2016-04-18,0.0,,0.0
321,2016-04-19,0.0,,0.0
321,2016-04-20,0.0,,0.0
321,2016-04-21,0.0,,0.0
321,2016-04-22,0.0,,0.0
321,2016-04-23,0.0,,0.0
321,2016-04-24,0.0,,0.0
321,2016-04-25,0.0,,0.0
321,2016-04-26,0.0,,0.0
321,2016-04-27,0.0,,0.0
321,2016-04-28,69.12333333333333,,69.12333333333333
321,2016-04-29,163.59125000000003,,163.59125000000003
321,2016-04-30,376.885,,376.885
321,2016-05-01,77.03458333333334,,77.03458333333334
321,2016-05-02,93.3275,,93.3275
321,2016-05-03,276.2,,276.2
321,2016-05-04,296.44,,296.44
321,2016-05-05,422.4479166666667,,422.4479166666667
321,2016-05-06,254.03458333333333,,254.03458333333333
321,2016-05-07,354.3945833333334,,354.3945833333334
321,2016-05-08,323.9220833333333,,323.9220833333333
321,2016-05-09,398.6762499999999,,398.6762499999999
321,2016-05-10,387.48125000000005,,387.48125000000005
321,2016-05-11,402.87875,,402.87875
321,2016-05-12,341.6054166666666,,341.6054166666666
321,2016-05-13,258.0404166666667,,258.0404166666667
321,2016-05-14,146.07041666666666,,146.07041666666666
321,2016-05-15,157.25375,,157.25375
321,2016-05-16,374.53000000000003,,374.53000000000003
321,2016-05-17,284.08250000000004,,284.08250000000004
321,2016-05-18,414.4533333333334,,414.4533333333334
321,2016-05-19,428.34041666666667,,428.34041666666667
321,2016-05-20,425.68125000000003,,425.68125000000003
321,2016-05-21,167.76583333333335,,167.76583333333335
321,2016-05-22,370.02208333333346,,370.02208333333346
321,2016-05-23,427.09375,,427.09375
321,2016-05-24,418.1708333333334,,418.1708333333334
321,2016-05-25,287.8929166666667,,287.8929166666667
321,2016-05-26,213.24125000000004,,213.24125000000004
321,2016-05-27,332.0725,,332.0725
321,2016-05-28,302.6358333333333,,302.6358333333333
321,2016-05-29,232.82000000000002,,232.82000000000002
321,2016-05-30,328.3254166666666,,328.3254166666666
321,2016-05-31,417.97375000000005,,417.97375000000005
321,2016-06-01,413.27874999999995,,413.27874999999995
321,2016-06-02,174.97916666666666,,174.97916666666666
321,2016-06-03,436.60125,,436.60125
321,2016-06-04,392.0620833333334,,392.0620833333334
321,2016-06-05,122.61458333333331,,122.61458333333331
321,2016-06-06,371.05416666666673,,371.05416666666673
321,2016-06-07,200.32041666666666,,200.32041666666666
321,2016-06-08,166.46333333333334,,166.46333333333334
321,2016-06-09,446.3120833333334,,446.3120833333334
321,2016-06-10,415.95750000000015,,415.95750000000015
321,2016-06-11,282.5758333333334,,282.5758333333334
321,2016-06-12,320.62791666666664,,320.62791666666664
321,2016-06-13,186.6329166666667,,186.6329166666667
321,2016-06-14,448.6383333333333,,448.6383333333333
321,2016-06-15,393.8775,,393.8775
321,2016-06-16,273.8775,,273.8775
321,2016-06-17,434.96125,,434.96125
321,2016-06-18,424.99458333333337,,424.99458333333337
321,2016-06-19,409.7012499999999,,409.7012499999999
321,2016-06-20,355.8566666666666,,355.8566666666666
321,2016-06-21,434.9800000000001,,434.9800000000001
321,2016-06-22,437.4216666666666,,437.4216666666666
321,2016-06-23,356.33374999999995,,356.33374999999995
321,2016-06-24,425.0070833333334,,425.0070833333334
321,2016-06-25,419.90625,,419.90625
321,2016-06-26,386.24499999999995,,386.24499999999995
321,2016-06-27,337.1379166666667,,337.1379166666667
321,2016-06-28,353.61999999999995,,353.61999999999995
321,2016-06-29,371.20333333333343,,371.20333333333343
321,2016-06-30,412.4695833333333,,412.4695833333333
321,2016-07-01,271.87458333333336,,271.87458333333336
321,2016-07-02,400.7275,,400.7275
321,2016-07-03,409.6720833333333,,409.6720833333333
321,2016-07-04,414.3358333333333,,414.3358333333333
321,2016-07-05,383.2425,,383.2425
321,2016-07-06,390.91374999999994,,390.91374999999994
321,2016-07-07,357.52375,,357.52375
321,2016-07-08,202.24958333333333,,202.24958333333333
321,2016-07-09,286.76875,,286.76875
321,2016-07-10,269.0133333333334,,269.0133333333334
321,2016-07-11,333.1716666666667,,333.1716666666667
321,2016-07-12,329.52874999999995,,329.52874999999995
321,2016-07-13,304.67,,304.67
321,2016-07-14,336.96083333333337,,336.96083333333337
321,2016-07-15,353.15333333333336,,353.15333333333336
321,2016-07-16,367.8358333333333,,367.8358333333333
321,2016-07-17,341.2708333333333,,341.2708333333333
321,2016-07-18,235.88791666666665,,235.88791666666665
321,2016-07-19,388.3408333333334,,388.3408333333334
321,2016-07-20,403.3408333333334,,403.3408333333334
321,2016-07-21,389.6458333333333,,389.6458333333333
321,2016-07-22,317.1770833333333,,317.1770833333333
321,2016-07-23,417.1408333333334,,417.1408333333334
321,2016-07-24,283.73375,,283.73375
321,2016-07-25,151.48749999999998,,151.48749999999998
321,2016-07-26,353.42958333333337,,353.42958333333337
321,2016-07-27,376.5995833333334,,376.5995833333334
321,2016-07-28,295.3566666666666,,295.3566666666666
321,2016-07-29,401.86499999999995,,401.86499999999995
321,2016-07-30,287.9683333333333,,287.9683333333333
321,2016-07-31,276.80291666666665,,276.80291666666665
321,2016-08-01,298.2708333333333,,298.2708333333333
321,2016-08-02,402.65583333333325,,402.65583333333325
321,2016-08-03,101.6825,,101.6825
321,2016-08-04,393.135,,393.135
321,2016-08-05,281.375,,281.375
321,2016-08-06,394.3341666666666,,394.3341666666666
321,2016-08-07,403.7395833333333,,403.7395833333333
321,2016-08-08,410.1504166666667,,410.1504166666667
321,2016-08-09,396.7191666666666,,396.7191666666666
321,2016-08-10,311.8541666666667,,311.8541666666667
321,2016-08-11,377.6870833333334,,377.6870833333334
321,2016-08-12,296.28749999999997,,296.28749999999997
321,2016-08-13,216.01,,216.01
321,2016-08-14,213.67166666666665,,213.67166666666665
321,2016-08-15,243.77625,,243.77625
321,2016-08-16,148.35416666666666,,148.35416666666666
321,2016-08-17,310.0258333333333,,310.0258333333333
321,2016-08-18,322.1566666666667,,322.1566666666667
321,2016-08-19,392.7341666666667,,392.7341666666667
321,2016-08-20,299.81874999999997,,299.81874999999997
321,2016-08-21,126.97874999999999,,126.97874999999999
321,2016-08-22,412.4433333333332,,412.4433333333332
321,2016-08-23,386.2441666666667,,386.2441666666667
321,2016-08-24,401.1770833333333,,401.1770833333333
321,2016-08-25,240.19833333333335,,240.19833333333335
321,2016-08-26,384.84375,,384.84375
321,2016-08-27,403.15624999999994,,403.15624999999994
321,2016-08-28,347.39000000000004,,347.39000000000004
321,2016-08-29,385.0987500000001,,385.0987500000001
321,2016-08-30,396.5479166666666,,396.5479166666666
321,2016-08-31,179.6258333333333,,179.6258333333333
321,2016-09-01,344.20833333333326,,344.20833333333326
321,2016-09-02,326.0154166666667,,326.0154166666667
321,2016-09-03,408.08833333333337,,408.08833333333337
321,2016-09-04,400.2870833333333,,400.2870833333333
321,2016-09-05,400.75541666666663,,400.75541666666663
321,2016-09-06,388.4783333333334,,388.4783333333334
321,2016-09-07,235.25458333333333,,235.25458333333333
321,2016-09-08,247.8025,,247.8025
321,2016-09-09,286.4529166666667,,286.4529166666667
321,2016-09-10,269.2758333333333,,269.2758333333333
321,2016-09-11,392.0879166666667,,392.0879166666667
321,2016-09-12,381.60374999999993,,381.60374999999993
321,2016-09-13,391.4375,,391.4375
321,2016-09-14,226.60416666666666,,226.60416666666666
321,2016-09-15,373.5104166666667,,373.5104166666667
321,2016-09-16,390.31249999999994,,390.31249999999994
321,2016-09-17,137.23333333333332,,137.23333333333332
321,2016-09-18,239.83833333333334,,239.83833333333334
321,2016-09-19,0.0,,0.0
321,2016-09-20,125.27083333333333,,125.27083333333333
321,2016-09-21,348.45875,,348.45875
321,2016-09-22,371.8958333333333,,371.8958333333333
321,2016-09-23,43.27125,,43.27125
321,2016-09-24,326.1458333333333,,326.1458333333333
321,2016-09-25,394.3904166666666,,394.3904166666666
321,2016-09-26,218.45875,,218.45875
321,2016-09-27,371.6820833333333,,371.6820833333333
321,2016-09-28,380.84833333333336,,380.84833333333336
321,2016-09-29,81.51583333333333,,81.51583333333333
321,2016-09-30,175.28125,,175.28125
321,2016-10-01,108.43708333333332,,108.43708333333332
321,2016-10-02,245.71375,,245.71375
321,2016-10-03,164.00458333333333,,164.00458333333333
321,2016-10-04,176.55291666666668,,176.55291666666668
321,2016-10-05,374.09416666666675,,374.09416666666675
321,2016-10-06,344.7345833333334,,344.7345833333334
321,2016-10-07,319.6983333333333,,319.6983333333333
321,2016-10-08,76.76583333333333,,76.76583333333333
321,2016-10-09,171.29125,,171.29125
321,2016-10-10,363.54666666666657,,363.54666666666657
321,2016-10-11,316.6558333333333,,316.6558333333333
321,2016-10-12,358.1983333333333,,358.1983333333333
321,2016-10-13,130.35916666666665,,130.35916666666665
321,2016-10-14,370.3908333333334,,370.3908333333334
321,2016-10-15,355.4012499999999,,355.4012499999999
321,2016-10-16,206.78583333333333,,206.78583333333333
321,2016-10-17,94.39625000000001,,94.39625000000001
321,2016-10-18,229.65666666666667,,229.65666666666667
321,2016-10-19,272.78208333333333,,272.78208333333333
321,2016-10-20,23.760833333333334,,23.760833333333334
321,2016-10-21,14.479166666666666,,14.479166666666666
321,2016-10-22,26.12,,26.12
321,2016-10-23,130.30666666666667,,130.30666666666667
321,2016-10-24,179.00541666666666,,179.00541666666666
321,2016-10-25,165.51625,,165.51625
321,2016-10-26,139.04625000000001,,139.04625000000001
321,2016-10-27,13.864583333333334,,13.864583333333334
321,2016-10-28,157.6925,,157.6925
321,2016-10-29,47.82875000000001,,47.82875000000001
321,2016-10-30,34.614583333333336,,34.614583333333336
321,2016-10-31,225.51541666666665,,225.51541666666665
321,2016-11-01,231.17208333333335,,231.17208333333335
321,2016-11-02,92.27083333333333,,92.27083333333333
321,2016-11-03,74.74416666666667,,74.74416666666667
321,2016-11-04,285.9329166666667,,285.9329166666667
321,2016-11-05,211.83833333333334,,211.83833333333334
321,2016-11-06,306.7391666666667,,306.7391666666667
321,2016-11-07,321.995,,321.995
321,2016-11-08,195.61375,,195.61375
321,2016-11-09,70.83833333333332,,70.83833333333332
321,2016-11-10,262.3125,,262.3125
321,2016-11-11,122.56791666666668,,122.56791666666668
321,2016-11-12,257.8279166666667,,257.8279166666667
321,2016-11-13,284.4691666666667,,284.4691666666667
321,2016-11-14,279.9429166666667,,279.9429166666667
321,2016-11-15,208.90083333333334,,208.90083333333334
321,2016-11-16,112.39583333333336,,112.39583333333336
321,2016-11-17,182.68208333333334,,182.68208333333334
321,2016-11-18,253.50458333333333,,253.50458333333333
321,2016-11-19,134.90041666666664,,134.90041666666664
321,2016-11-20,27.030833333333334,,27.030833333333334
321,2016-11-21,4.145833333333333,,4.145833333333333
321,2016-11-22,45.125,,45.125
321,2016-11-23,152.78666666666666,,152.78666666666666
321,2016-11-24,29.677083333333332,,29.677083333333332
321,2016-11-25,63.995,,63.995
321,2016-11-26,40.20791666666667,,40.20791666666667
321,2016-11-27,63.922083333333326,,63.922083333333326
321,2016-11-28,246.13041666666666,,246.13041666666666
321,2016-11-29,46.895833333333336,,46.895833333333336
321,2016-11-30,20.875,,20.875
321,2016-12-01,73.5775,,73.5775
321,2016-12-02,87.99458333333335,,87.99458333333335
321,2016-12-03,38.58833333333333,,38.58833333333333
321,2016-12-04,143.13083333333336,,143.13083333333336
321,2016-12-05,66.61458333333333,,66.61458333333333
321,2016-12-06,88.47416666666668,,88.47416666666668
321,2016-12-07,135.48458333333335,,135.48458333333335
321,2016-12-08,103.05208333333333,,103.05208333333333
321,2016-12-09,33.34375,,33.34375
321,2016-12-10,83.63000000000001,,83.63000000000001
321,2016-12-11,55.78708333333333,,55.78708333333333
321,2016-12-12,22.973333333333333,,22.973333333333333
321,2016-12-13,95.85958333333333,,95.85958333333333
321,2016-12-14,227.30166666666665,,227.30166666666665
321,2016-12-15,10.322083333333333,,10.322083333333333
321,2016-12-16,0.8808333333333334,,0.8808333333333334
321,2016-12-17,0.45249999999999996,,0.45249999999999996
321,2016-12-18,32.07791666666667,,32.07791666666667
321,2016-12-19,98.01041666666669,,98.01041666666669
321,2016-12-20,93.005,,93.005
321,2016-12-21,94.63583333333334,,94.63583333333334
321,2016-12-22,11.453333333333333,,11.453333333333333
321,2016-12-23,142.41625,,142.41625
321,2016-12-24,23.16625,,23.16625
321,2016-12-25,111.88583333333334,,111.88583333333334
321,2016-12-26,92.85416666666667,,92.85416666666667
321,2016-12-27,19.72875,,19.72875
321,2016-12-28,59.93708333333333,,59.93708333333333
321,2016-12-29,48.14458333333332,,48.14458333333332
321,2016-12-30,6.40125,,6.40125
321,2016-12-31,47.78666666666667,,47.78666666666667
321,2017-01-01,272.59291666666667,,272.59291666666667
321,2017-01-02,19.702916666666667,,19.702916666666667
321,2017-01-03,13.83875,,13.83875
321,2017-01-04,106.58833333333332,,106.58833333333332
321,2017-01-05,90.27166666666666,,90.27166666666666
321,2017-01-06,186.07791666666665,,186.07791666666665
321,2017-01-07,176.11458333333334,,176.11458333333334
321,2017-01-08,3.9583333333333335,,3.9583333333333335
321,2017-01-09,5.172083333333334,,5.172083333333334
321,2017-01-10,13.985,,13.985
321,2017-01-11,194.70833333333334,,194.70833333333334
321,2017-01-12,20.5625,,20.5625
321,2017-01-13,134.53625,,134.53625
321,2017-01-14,49.35375,,49.35375
321,2017-01-15,26.349166666666665,,26.349166666666665
321,2017-01-16,212.15041666666664,,212.15041666666664
321,2017-01-17,10.213333333333333,,10.213333333333333
321,2017-01-18,16.062083333333334,,16.062083333333334
321,2017-01-19,29.615,,29.615
321,2017-01-20,80.80166666666666,,80.80166666666666
321,2017-01-21,85.87,,85.87
321,2017-01-22,43.77124999999999,,43.77124999999999
321,2017-01-23,61.5,,61.5
321,2017-01-24,2.6462499999999998,,2.6462499999999998
321,2017-01-25,76.28166666666667,,76.28166666666667
321,2017-01-26,60.65125000000001,,60.65125000000001
321,2017-01-27,91.92208333333333,,91.92208333333333
321,2017-01-28,39.844166666666666,,39.844166666666666
321,2017-01-29,71.73958333333333,,71.73958333333333
321,2017-01-30,18.135416666666668,,18.135416666666668
321,2017-01-31,6.84875,,6.84875
321,2017-02-01,116.78708333333334,,116.78708333333334
321,2017-02-02,45.13041666666666,,45.13041666666666
321,2017-02-03,229.22833333333332,,229.22833333333332
321,2017-02-04,173.92708333333334,,173.92708333333334
321,2017-02-05,49.265416666666674,,49.265416666666674
321,2017-02-06,97.10416666666667,,97.10416666666667
321,2017-02-07,30.927083333333332,,30.927083333333332
321,2017-02-08,76.5,,76.5
321,2017-02-09,12.5525,,12.5525
321,2017-02-10,0.7654166666666667,,0.7654166666666667
321,2017-02-11,63.838750000000005,,63.838750000000005
321,2017-02-12,32.37,,32.37
321,2017-02-13,3.4737500000000003,,3.4737500000000003
321,2017-02-14,238.68666666666664,,238.68666666666664
321,2017-02-15,128.95333333333335,,128.95333333333335
321,2017-02-16,81.56250000000001,,81.56250000000001
321,2017-02-17,189.29166666666666,,189.29166666666666
321,2017-02-18,341.16625000000005,,341.16625000000005
321,2017-02-19,330.46375,,330.46375
321,2017-02-20,384.19208333333336,,384.19208333333336
321,2017-02-21,131.33375,,131.33375
321,2017-02-22,205.28125,,205.28125
321,2017-02-23,208.00041666666667,,208.00041666666667
321,2017-02-24,165.58833333333334,,165.58833333333334
321,2017-02-25,32.95291666666667,,32.95291666666667
321,2017-02-26,166.14083333333335,,166.14083333333335
321,2017-02-27,323.6770833333333,,323.6770833333333
321,2017-02-28,188.89166666666665,,188.89166666666665
321,2017-03-01,123.55708333333332,,123.55708333333332
321,2017-03-02,269.1354166666667,,269.1354166666667
321,2017-03-03,209.50958333333332,,209.50958333333332
321,2017-03-04,12.556666666666667,,12.556666666666667
321,2017-03-05,177.44750000000002,,177.44750000000002
321,2017-03-06,160.71833333333333,,160.71833333333333
321,2017-03-07,49.79708333333334,,49.79708333333334
321,2017-03-08,208.48458333333335,,208.48458333333335
321,2017-03-09,0.0,,0.0
321,2017-03-10,0.0,,0.0
321,2017-03-11,37.870416666666664,,37.870416666666664
321,2017-03-12,181.68708333333333,,181.68708333333333
321,2017-03-13,156.72458333333333,,156.72458333333333
321,2017-03-14,2.7500000000000004,,2.7500000000000004
321,2017-03-15,0.21791666666666668,,0.21791666666666668
321,2017-03-16,273.50041666666664,,273.50041666666664
321,2017-03-17,415.72375000000005,,415.72375000000005
321,2017-03-18,83.50041666666667,,83.50041666666667
321,2017-03-19,335.6875,,335.6875
321,2017-03-20,159.18708333333333,,159.18708333333333
321,2017-03-21,302.635,,302.635
321,2017-03-22,348.9316666666667,,348.9316666666667
321,2017-03-23,433.89625,,433.89625
321,2017-03-24,79.44708333333334,,79.44708333333334
321,2017-03-25,57.97958333333333,,57.97958333333333
321,2017-03-26,167.5675,,167.5675
321,2017-03-27,111.67708333333333,,111.67708333333333
321,2017-03-28,64.05749999999999,,64.05749999999999
321,2017-03-29,366.0520833333333,,366.0520833333333
321,2017-03-30,164.75,,164.75
321,2017-03-31,45.50583333333335,,45.50583333333335
321,2017-04-01,77.03083333333335,,77.03083333333335
321,2017-04-02,380.89541666666673,,380.89541666666673
321,2017-04-03,246.46916666666664,,246.46916666666664
321,2017-04-04,132.24458333333334,,132.24458333333334
321,2017-04-05,167.27041666666665,,167.27041666666665
321,2017-04-06,32.6825,,32.6825
321,2017-04-07,72.42750000000001,,72.42750000000001
321,2017-04-08,442.3179166666667,,442.3179166666667
321,2017-04-09,396.9166666666667,,396.9166666666667
321,2017-04-10,321.4270833333333,,321.4270833333333
321,2017-04-11,128.03125,,128.03125
321,2017-04-12,95.98958333333333,,95.98958333333333
321,2017-04-13,375.71875,,375.71875
321,2017-04-14,441.21875,,441.21875
321,2017-04-15,195.98958333333334,,195.98958333333334
321,2017-04-16,314.9375,,314.9375
321,2017-04-17,442.0208333333333,,442.0208333333333
321,2017-04-18,447.4375,,447.4375
321,2017-04-19,77.40625,,77.40625
321,2017-04-20,109.23958333333333,,109.23958333333333
321,2017-04-21,265.2291666666667,,265.2291666666667
321,2017-04-22,241.59375,,241.59375
321,2017-04-23,442.1145833333333,,442.1145833333333
321,2017-04-24,440.84375,,440.84375
321,2017-04-25,184.02083333333334,,184.02083333333334
321,2017-04-26,352.03125,,352.03125
321,2017-04-27,373.9583333333333,,373.9583333333333
321,2017-04-28,374.59375,,374.59375
321,2017-04-29,112.22916666666667,,112.22916666666667
321,2017-04-30,218.01041666666666,,218.01041666666666
321,2017-05-01,68.19791666666667,,68.19791666666667
321,2017-05-02,189.20833333333334,,189.20833333333334
321,2017-05-03,383.5208333333333,,383.5208333333333
321,2017-05-04,152.33333333333334,,152.33333333333334
321,2017-05-05,54.53125,,54.53125
321,2017-05-06,78.8125,,78.8125
321,2017-05-07,148.05208333333334,,148.05208333333334
321,2017-05-08,233.86458333333334,,233.86458333333334
321,2017-05-09,367.4375,,367.4375
321,2017-05-10,415.6458333333333,,415.6458333333333
321,2017-05-11,295.0208333333333,,295.0208333333333
321,2017-05-12,321.6666666666667,,321.6666666666667
321,2017-05-13,127.29166666666667,,127.29166666666667
321,2017-05-14,291.1979166666667,,291.1979166666667
321,2017-05-15,451.9270833333333,,451.9270833333333
321,2017-05-16,248.39583333333334,,248.39583333333334
321,2017-05-17,365.4375,,365.4375
321,2017-05-18,305.5,,305.5
321,2017-05-19,182.375,,182.375
321,2017-05-20,447.6041666666667,,447.6041666666667
321,2017-05-21,177.96875,,177.96875
321,2017-05-22,301.4270833333333,,301.4270833333333
321,2017-05-23,346.90625,,346.90625
321,2017-05-24,361.8645833333333,,361.8645833333333
321,2017-05-25,97.89583333333333,,97.89583333333333
321,2017-05-26,196.29166666666666,,196.29166666666666
321,2017-05-27,175.47916666666666,,175.47916666666666
321,2017-05-28,341.2395833333333,,341.2395833333333
321,2017-05-29,291.4791666666667,,291.4791666666667
321,2017-05-30,202.20833333333334,,202.20833333333334
321,2017-05-31,327.8958333333333,,327.8958333333333
321,2017-06-01,342.34375,,342.34375
321,2017-06-02,430.6458333333333,,430.6458333333333
321,2017-06-03,445.8125,,445.8125
321,2017-06-04,108.82291666666667,,108.82291666666667
321,2017-06-05,179.88541666666666,,179.88541666666666
321,2017-06-06,208.29166666666666,,208.29166666666666
321,2017-06-07,437.4895833333333,,437.4895833333333
321,2017-06-08,430.5625,,430.5625
321,2017-06-09,406.6770833333333,,406.6770833333333
321,2017-06-10,360.9895833333333,,360.9895833333333
321,2017-06-11,411.21875,,411.21875
321,2017-06-12,379.9895833333333,,379.9895833333333
321,2017-06-13,204.07291666666666,,204.07291666666666
321,2017-06-14,430.0729166666667,,430.0729166666667
321,2017-06-15,197.70833333333334,,197.70833333333334
321,2017-06-16,265.3541666666667,,265.3541666666667
321,2017-06-17,388.6770833333333,,388.6770833333333
321,2017-06-18,251.92708333333334,,251.92708333333334
321,2017-06-19,179.125,,179.125
321,2017-06-20,240.79166666666666,,240.79166666666666
321,2017-06-21,346.125,,346.125
321,2017-06-22,273.9895833333333,,273.9895833333333
321,2017-06-23,161.35416666666666,,161.35416666666666
321,2017-06-24,256.90625,,256.90625
321,2017-06-25,310.9270833333333,,310.9270833333333
321,2017-06-26,265.6666666666667,,265.6666666666667
321,2017-06-27,268.78125,,268.78125
321,2017-06-28,326.90625,,326.90625
321,2017-06-29,112.28125,,112.28125
321,2017-06-30,200.8125,,200.8125
321,2017-07-01,177.3125,,177.3125
321,2017-07-02,367.1979166666667,,367.1979166666667
321,2017-07-03,393.90625,,393.90625
321,2017-07-04,394.3229166666667,,394.3229166666667
321,2017-07-05,391.8541666666667,,391.8541666666667
321,2017-07-06,324.7708333333333,,324.7708333333333
321,2017-07-07,277.8229166666667,,277.8229166666667
321,2017-07-08,271.2083333333333,,271.2083333333333
321,2017-07-09,367.34375,,367.34375
321,2017-07-10,254.39583333333334,,254.39583333333334
321,2017-07-11,268.5520833333333,,268.5520833333333
321,2017-07-12,133.1875,,133.1875
321,2017-07-13,0.0,,0.0
321,2017-07-14,0.0,,0.0
321,2017-07-15,0.0,,0.0
321,2017-07-16,0.0,,0.0
321,2017-07-17,0.0,,0.0
321,2017-07-18,0.3229166666666667,,0.3229166666666667
321,2017-07-19,250.07291666666666,,250.07291666666666
321,2017-07-20,205.58333333333334,,205.58333333333334
321,2017-07-21,300.59375,,300.59375
321,2017-07-22,125.25,,125.25
321,2017-07-23,193.55208333333334,,193.55208333333334
321,2017-07-24,190.42708333333334,,190.42708333333334
321,2017-07-25,79.95833333333333,,79.95833333333333
321,2017-07-26,217.11458333333334,,217.11458333333334
321,2017-07-27,135.42708333333334,,135.42708333333334
321,2017-07-28,270.0416666666667,,270.0416666666667
321,2017-07-29,342.71875,,342.71875
321,2017-07-30,320.3229166666667,,320.3229166666667
321,2017-07-31,317.90625,,317.90625
321,2017-08-01,74.63541666666667,,74.63541666666667
321,2017-08-02,128.05208333333334,,128.05208333333334
321,2017-08-03,110.09375,,110.09375
321,2017-08-04,80.21875,,80.21875
321,2017-08-05,72.45833333333333,,72.45833333333333
321,2017-08-06,103.17708333333333,,103.17708333333333
321,2017-08-07,76.58333333333333,,76.58333333333333
321,2017-08-08,126.05208333333333,,126.05208333333333
321,2017-08-09,110.83333333333333,,110.83333333333333
321,2017-08-10,117.42708333333333,,117.42708333333333
321,2017-08-11,54.447916666666664,,54.447916666666664
321,2017-08-12,87.5625,,87.5625
321,2017-08-13,121.94791666666667,,121.94791666666667